EHI
2 1 0 0 0 0 0 0 0 0 0 0 0 0 0 0 0 1 1 0 0 1 0 0 0 0 0 0 0 0 0 0 0 0 0 0 0 0 0 0 0 0 0
1 1 1 1 0 1 1 0 0 0 0 0 0 0 0 0 0 1 1 0 1 1 1 0 0 0 0 0 0 0 0 0 0 0 0 0 0 0 0 0 0 0 0
1 1 2 2 2 2 2 1 1 0 0 0 0 0 0 0 0 1 1 0 1 2 2 1 0 0 0 0 0 0 0 0 0 0 0 0 0 0 0 0 0 0 0
2 2 3 3 3 2 2 2 1 0 0 0 0 1 1 1 0 0 0 1 2 3 3 2 1 1 0 0 0 1 1 1 1 1 1 1 1 0 0 0 0 0 0
3 3 3 3 3 2 2 2 2 1 1 0 1 2 2 1 0 0 1 2 3 3 3 1 0 0 0 1 1 2 2 2 3 2 1 1 1 1 0 0 0 0 0
1 2 3 5 5 4 4 4 4 3 1 1 1 2 2 1 1 1 2 3 3 3 2 1 0 0 0 1 2 3 3 3 3 2 1 1 1 1 1 0 0 0 0
1 2 5 7 8 8 7 7 5 2 1 0 1 1 1 1 2 3 3 3 3 3 1 1 1 1 1 1 3 3 3 3 3 2 1 1 1 1 1 1 1 0 0
2 3 5 8 9 9 8 7 5 2 0 0 0 0 1 1 3 3 3 3 3 2 1 1 2 2 2 2 3 3 3 3 3 2 1 1 2 2 2 2 2 1 0
1 1 3 5 7 8 7 6 5 3 1 1 1 1 2 3 3 3 3 3 3 1 0 1 2 2 2 3 4 3 3 3 3 2 1 1 1 1 1 2 2 1 1
1 1 2 4 6 7 6 5 4 4 3 3 3 3 3 3 3 3 3 3 2 1 1 1 1 1 1 2 4 4 3 3 3 2 1 0 0 0 0 1 1 1 0
2 3 4 5 7 8 7 4 3 3 3 4 4 4 3 3 3 3 3 3 2 2 2 2 1 1 1 2 4 5 4 3 3 2 1 0 0 0 0 0 0 0 0
4 5 7 8 9 10 9 6 4 3 4 4 4 4 3 3 3 3 3 3 3 3 3 2 3 4 4 4 4 5 5 4 2 1 0 0 0 0 0 0 0 0 0
5 5 7 9 10 11 12 10 7 6 6 6 6 5 4 4 3 3 2 2 3 3 2 2 4 5 5 4 3 3 4 3 2 1 1 1 0 0 0 0 0 0 0
4 5 7 9 11 12 13 13 11 9 8 8 8 7 5 4 3 2 1 1 2 1 1 1 2 3 3 2 1 1 2 2 1 1 1 1 0 0 0 0 0 0 0
5 5 7 10 12 14 14 13 12 10 9 8 7 6 4 2 1 1 1 2 1 1 0 0 0 1 1 0 0 0 1 1 0 0 1 1 0 0 0 0 0 0 0
6 6 6 9 12 13 13 12 10 8 7 6 5 4 1 0 0 1 2 2 1 1 0 0 0 0 0 0 0 0 0 0 0 0 0 0 0 0 0 0 0 0 0
6 5 4 6 8 9 10 9 8 6 5 4 4 3 1 1 0 1 1 1 0 0 0 0 0 0 0 0 0 0 0 0 0 0 0 0 0 0 0 0 0 0 0
5 4 3 3 4 5 5 5 5 5 4 3 3 3 3 2 1 0 0 0 0 0 0 0 0 0 0 0 0 0 0 0 0 0 0 0 0 0 0 0 0 0 0
3 3 3 3 3 3 2 3 4 5 4 3 3 3 3 2 1 0 0 0 0 0 0 0 0 0 0 0 0 0 0 0 0 0 0 0 0 0 0 0 0 0 0
1 2 3 3 3 1 1 2 3 4 5 4 3 3 3 2 1 0 1 1 1 0 0 0 0 0 0 0 0 0 0 0 0 0 0 0 0 0 0 0 0 0 0
0 1 2 3 3 1 0 1 1 2 4 5 4 3 3 2 1 0 1 2 2 1 0 0 0 0 0 0 0 0 0 0 0 0 0 0 0 0 0 0 0 0 0
0 0 1 2 2 1 0 0 0 1 3 5 4 3 2 1 1 0 0 1 2 1 0 0 0 0 0 0 0 0 0 0 0 0 0 0 0 0 0 0 0 0 0
0 0 0 1 1 1 0 0 0 0 1 3 3 2 1 0 0 0 0 1 2 2 1 0 0 0 0 0 0 0 0 0 0 0 0 0 0 0 0 0 0 0 0
0 0 0 0 0 0 0 0 0 0 0 1 2 2 1 0 0 0 0 1 2 2 1 0 0 0 0 0 0 0 0 0 0 0 0 0 0 0 0 0 0 0 0
0 0 0 0 0 0 0 0 0 0 0 1 2 2 1 0 0 0 0 1 2 1 1 0 0 0 0 0 0 0 0 0 0 0 0 0 0 0 0 0 0 0 0
0 0 0 0 0 0 0 0 0 0 0 0 1 2 1 0 0 0 0 1 1 0 0 0 0 0 0 0 0 0 0 0 0 0 0 0 0 0 0 0 0 0 0
Wind_Speed
4 3 4 4 4 3 3 3 3 2 3 2 2 1 1 1 1 1 1 1 2 2 2 1 1 1 1 1 1 1 2 2 1 2 2 2 1 0 1 1 1 1 1
3 4 4 4 4 4 3 3 3 3 3 2 2 1 1 1 0 1 1 1 1 1 1 2 1 1 1 2 2 1 1 1 1 1 1 1 2 2 1 1 1 1 1
6 6 5 5 5 4 5 4 3 3 2 3 2 2 2 2 2 1 1 1 1 1 2 2 1 1 1 1 1 1 2 1 1 1 2 2 1 1 2 1 1 1 1
6 6 6 6 6 5 4 3 3 3 2 3 3 3 2 1 1 0 0 1 2 1 1 1 1 1 1 1 1 1 1 2 1 0 0 1 2 1 1 2 1 1 2
7 7 8 7 6 5 5 4 3 2 2 3 3 3 2 1 1 1 1 1 2 1 1 1 1 1 1 1 1 2 1 1 1 1 0 0 0 1 1 2 2 2 1
7 6 5 5 4 4 4 4 4 3 3 3 3 4 3 2 2 1 1 1 1 1 1 1 1 1 1 1 1 1 1 1 1 1 1 1 1 1 1 2 2 2 2
6 6 6 6 5 5 5 4 4 3 3 3 3 3 3 3 2 1 1 0 0 1 1 1 1 0 0 0 1 1 1 1 1 1 0 1 1 1 1 1 2 2 2
6 7 7 7 6 6 5 5 5 4 3 3 3 2 2 2 1 1 1 1 1 0 0 1 1 0 0 0 1 1 0 1 1 0 0 0 1 1 1 2 1 2 2
7 7 7 7 7 7 6 6 6 4 4 3 3 2 2 2 1 1 1 0 0 0 1 1 1 1 1 1 1 1 0 0 0 0 0 0 1 1 1 1 2 2 2
6 6 6 6 6 5 5 5 5 5 4 3 3 3 2 2 1 1 1 1 1 1 1 1 1 1 1 1 1 1 0 0 0 0 0 1 1 1 1 1 1 2 2
6 5 5 5 5 5 5 5 4 4 3 3 3 3 2 2 2 1 1 1 1 1 1 1 1 1 1 1 0 0 0 0 1 1 1 1 2 1 1 1 1 2 2
4 4 4 4 5 5 4 4 4 4 3 3 3 3 3 3 2 1 1 1 1 1 1 1 1 1 1 1 0 1 1 1 1 2 1 2 2 2 2 1 2 2 3
4 4 4 4 4 4 4 4 4 4 3 4 4 3 3 3 2 1 1 1 1 1 1 1 0 1 1 1 1 1 1 1 2 2 3 3 2 2 2 2 2 2 2
5 5 4 3 3 3 4 4 4 4 4 4 4 3 3 3 2 2 1 1 1 1 0 0 0 1 1 1 1 1 1 1 2 2 3 3 3 4 3 2 3 2 2
5 5 5 4 4 3 3 4 3 3 4 4 4 3 2 2 2 1 1 1 1 1 0 0 1 1 1 1 1 1 1 1 2 3 3 3 3 3 3 2 3 2 2
6 5 4 4 4 4 4 4 4 3 3 3 3 2 2 2 2 1 1 1 0 0 0 0 1 1 1 2 2 1 1 1 2 2 3 3 3 4 4 5 4 3 3
6 6 6 5 5 5 5 4 4 4 3 3 2 2 2 2 1 2 1 1 1 0 0 0 0 1 2 2 2 1 1 1 1 2 2 3 3 4 3 4 4 3 4
6 6 5 4 4 4 4 4 4 4 4 3 2 2 3 2 1 1 1 1 1 1 1 1 1 1 2 2 2 2 1 1 2 2 2 3 4 4 3 3 3 3 3
5 5 5 5 5 5 5 5 4 3 3 3 3 3 3 3 2 2 2 2 1 1 1 1 1 1 2 3 2 2 1 1 3 3 3 3 3 5 3 2 3 4 4
4 5 5 5 5 4 5 5 4 4 4 4 3 3 3 3 3 3 2 2 1 2 1 1 1 1 2 3 2 2 0 1 2 3 3 4 4 5 4 2 2 3 4
4 4 5 5 5 5 5 5 4 4 4 3 2 2 3 3 3 2 2 2 1 1 0 1 2 2 2 3 3 1 0 1 2 2 3 3 5 5 5 3 2 4 4
4 4 4 3 3 4 5 4 3 3 2 2 2 2 2 2 3 3 2 2 2 1 1 1 2 2 2 2 3 3 2 2 1 2 3 3 5 5 5 3 3 4 3
3 3 3 2 2 3 4 4 3 2 2 2 2 2 1 1 2 3 2 2 2 2 1 1 2 2 2 2 3 3 3 3 1 2 4 4 5 5 4 4 5 3 1
3 4 4 3 2 2 2 3 2 3 3 2 2 2 2 1 1 1 2 2 2 2 2 2 2 2 2 2 2 2 2 2 2 2 4 4 4 3 4 4 4 2 2
3 3 4 4 3 2 2 2 3 3 3 2 2 2 2 2 2 1 2 2 3 3 3 3 3 2 3 3 3 2 2 2 2 1 2 2 3 4 4 3 3 3 3
3 3 4 4 3 3 2 2 2 4 3 2 2 2 2 2 2 1 1 1 2 2 4 4 3 3 4 4 3 2 2 2 1 1 1 1 2 3 3 3 4 3 3
Wind_Direction
188 167 158 151 140 139 138 138 133 129 121 107 110 102 73 38 43 39 33 46 48 47 61 48 41 56 81 78 78 93 81 59 74 86 44 19 13 335 250 234 217 237 238
170 168 160 153 158 163 161 153 154 146 143 140 134 135 131 119 108 33 37 38 53 49 60 64 57 59 78 62 58 81 95 54 53 99 94 5 352 345 299 240 218 240 241
187 183 175 177 174 179 181 174 170 157 151 137 111 92 69 46 39 28 20 10 43 61 61 70 74 62 78 87 69 87 122 127 56 67 131 149 235 307 328 303 257 243 232
186 188 185 185 188 190 177 161 159 153 145 136 138 141 140 155 203 169 44 10 28 48 61 75 81 80 80 80 73 84 107 132 141 59 40 157 161 163 314 326 323 287 257
190 193 194 191 190 178 167 163 153 148 144 146 154 145 147 163 123 81 60 28 15 19 31 80 86 81 75 80 70 68 74 112 137 149 160 156 75 139 193 281 314 324 291
187 190 185 171 173 164 161 159 153 161 160 154 153 158 163 154 129 91 61 12 8 359 355 69 80 81 75 75 86 98 94 97 109 117 122 141 159 192 193 237 275 292 298
177 174 169 167 170 168 169 161 157 174 173 160 164 174 172 164 170 179 185 169 5 348 344 26 54 72 167 115 109 105 101 123 132 158 181 184 209 190 183 205 258 277 291
175 175 175 173 176 175 167 162 168 180 174 168 177 174 165 167 171 170 168 182 208 242 31 78 71 27 51 75 93 94 140 94 136 142 169 251 270 219 195 196 216 276 291
180 178 175 176 176 176 175 175 175 179 179 181 171 155 148 142 140 128 120 122 285 106 71 79 80 57 63 68 93 83 26 86 94 271 195 218 282 268 250 226 211 217 262
179 178 178 182 177 173 169 168 171 176 176 168 171 155 139 136 132 116 107 87 42 44 57 48 59 55 54 58 95 84 25 73 299 240 256 268 264 263 254 248 240 221 220
181 176 173 172 161 151 153 159 161 158 158 161 146 128 121 117 115 117 107 101 88 78 59 51 53 44 33 36 81 270 157 211 289 285 265 269 260 268 273 253 243 232 217
161 155 153 149 149 154 158 157 159 160 159 147 134 129 120 111 108 104 94 93 92 81 74 52 40 23 14 360 315 262 267 241 261 267 264 270 265 263 262 253 252 243 227
146 142 139 147 153 157 156 153 155 156 145 136 132 124 124 128 140 155 153 149 123 74 70 87 65 346 325 319 295 261 266 262 259 258 255 262 261 269 264 253 256 255 245
155 155 153 151 153 151 146 144 146 147 144 139 139 141 155 160 169 167 149 157 144 123 92 309 267 279 291 289 287 278 278 279 276 264 260 261 252 253 254 251 251 252 252
164 165 162 160 156 147 144 145 148 146 147 145 146 157 162 151 146 138 140 144 150 165 194 314 319 316 295 284 312 281 268 287 301 298 287 276 275 270 259 259 245 239 245
174 172 167 167 169 167 162 155 154 153 145 147 151 148 134 129 133 133 146 136 132 110 91 304 298 312 311 347 359 22 329 315 303 306 307 299 290 298 288 278 269 244 232
173 173 177 180 180 174 165 165 165 150 141 143 148 149 146 138 151 154 137 159 178 142 79 299 315 294 302 345 356 9 24 328 304 301 312 315 319 323 303 293 288 266 256
171 172 172 172 172 163 157 153 151 148 147 150 160 162 152 152 165 155 171 205 198 193 203 255 278 287 311 350 355 2 12 322 307 301 293 297 312 319 324 318 312 294 280
172 171 168 163 160 160 156 144 146 148 157 176 188 185 169 169 176 186 197 197 187 231 235 251 263 282 309 340 347 15 350 319 315 314 312 308 307 322 337 331 316 315 312
154 154 146 140 148 158 147 144 156 163 189 198 196 185 181 181 189 196 200 192 187 202 217 280 283 269 291 322 342 16 339 320 317 320 320 322 318 323 338 325 307 307 308
143 139 142 150 157 153 146 155 166 189 202 189 177 182 189 189 189 185 180 169 169 168 221 280 288 283 292 313 331 357 313 280 299 314 318 321 328 322 321 311 282 277 292
128 133 137 142 139 142 146 161 186 194 163 158 167 184 191 193 172 165 168 154 148 150 259 282 302 302 303 308 315 320 307 297 262 287 302 313 331 330 326 319 309 303 310
137 133 136 133 126 146 156 169 190 153 140 147 167 181 189 187 167 164 165 156 158 179 224 244 266 282 292 303 312 313 311 309 284 286 302 316 328 330 332 338 333 331 333
148 142 139 144 156 147 155 173 168 147 146 160 180 172 170 187 179 174 174 177 196 204 217 234 256 271 283 290 303 306 308 316 312 312 323 328 336 344 341 346 349 353 340
149 153 153 158 172 164 167 169 157 147 155 169 179 181 182 183 190 197 206 203 216 204 200 217 227 236 263 269 278 281 284 281 283 309 348 358 357 359 355 354 349 350 351
154 152 156 164 171 163 172 175 161 156 157 167 178 182 178 180 182 184 282 294 229 223 220 222 223 242 243 264 278 289 296 297 277 118 17 338 332 329 331 333 337 341 346